| time (UTC) | temp F | wind direction | speed MPH | gust MPH | rain 1hr in | rain 24hr in | rain mn in | humidity % | barometer mb |
| 20260504081743 | 43 | 175 | 0.0 | 0.0 | 0.00 | 0.00 | 0.00 | 84 | 1016.7 |
| 20260504081239 | 43 | 182 | 0.0 | 0.0 | 0.00 | 0.00 | 0.00 | 84 | 1016.6 |
| 20260504080735 | 43 | 162 | 0.0 | 0.0 | 0.00 | 0.00 | 0.00 | 84 | 1016.5 |
| 20260504080232 | 43 | 162 | 0.0 | 0.0 | 0.00 | 0.00 | 0.00 | 84 | 1016.5 |
| 20260504070159 | 42 | 174 | 0.0 | 0.0 | 0.00 | 0.00 | 0.00 | 83 | 1016.9 |
| 20260504060120 | 42 | 162 | 0.0 | 2.0 | 0.00 | 0.00 | 0.00 | 84 | 1017.0 |
| 20260504050548 | 40 | 153 | 0.0 | 0.0 | 0.00 | 0.00 | 0.00 | 86 | 1017.2 |
| 20260504045542 | 40 | 156 | 0.0 | 0.0 | 0.00 | 0.00 | 0.00 | 86 | 1017.3 |
| 20260504045037 | 39 | 155 | 0.0 | 0.0 | 0.00 | 0.00 | 0.00 | 86 | 1017.2 |
| 20260504044535 | 39 | 175 | 0.0 | 0.0 | 0.00 | 0.00 | 0.00 | 86 | 1017.4 |
| 20260504044032 | 38 | 177 | 0.0 | 0.0 | 0.00 | 0.00 | 0.00 | 86 | 1017.3 |
| 20260504043529 | 38 | 177 | 0.0 | 0.0 | 0.00 | 0.00 | 0.00 | 86 | 1017.2 |
| 20260504043026 | 38 | 177 | 0.0 | 0.0 | 0.00 | 0.00 | 0.00 | 86 | 1017.2 |
| 20260504042523 | 37 | 164 | 0.0 | 0.0 | 0.00 | 0.00 | 0.00 | 86 | 1017.2 |
| 20260504042020 | 37 | 172 | 0.0 | 0.0 | 0.00 | 0.00 | 0.00 | 85 | 1017.4 |
| 20260504041516 | 36 | 161 | 0.0 | 0.0 | 0.00 | 0.00 | 0.00 | 85 | 1017.6 |
| 20260504041012 | 36 | 161 | 0.0 | 0.0 | 0.00 | 0.00 | 0.00 | 85 | 1017.4 |
| 20260504040510 | 36 | 160 | 0.0 | 0.0 | 0.00 | 0.00 | 0.00 | 85 | 1017.2 |
| 20260504040006 | 36 | 162 | 0.0 | 0.0 | 0.00 | 0.00 | 0.00 | 84 | 1017.4 |
| 20260504035503 | 36 | 164 | 0.0 | 0.0 | 0.00 | 0.00 | 0.00 | 84 | 1017.3 |
| 20260504034959 | 35 | 163 | 0.0 | 0.0 | 0.00 | 0.00 | 0.00 | 83 | 1017.4 |
| 20260504034457 | 36 | 161 | 0.0 | 0.0 | 0.00 | 0.00 | 0.00 | 83 | 1017.2 |
| 20260504033954 | 36 | 161 | 0.0 | 0.0 | 0.00 | 0.00 | 0.00 | 83 | 1017.3 |
| 20260504033452 | 37 | 161 | 0.0 | 0.0 | 0.00 | 0.00 | 0.00 | 83 | 1017.3 |
| 20260504032949 | 37 | 161 | 0.0 | 0.0 | 0.00 | 0.00 | 0.00 | 83 | 1017.1 |
| 20260504032445 | 37 | 159 | 0.0 | 0.0 | 0.00 | 0.00 | 0.00 | 83 | 1017.1 |
| 20260504031942 | 37 | 154 | 0.0 | 0.0 | 0.00 | 0.00 | 0.00 | 82 | 1017.0 |
| 20260504031439 | 37 | 173 | 0.0 | 0.0 | 0.00 | 0.00 | 0.00 | 82 | 1017.1 |
| 20260504030936 | 38 | 151 | 0.0 | 0.0 | 0.00 | 0.00 | 0.00 | 82 | 1016.9 |
| 20260504030433 | 38 | 200 | 0.0 | 0.0 | 0.00 | 0.00 | 0.00 | 82 | 1017.0 |
| 20260504025929 | 38 | 150 | 0.0 | 2.0 | 0.00 | 0.00 | 0.00 | 81 | 1017.0 |
| 20260504025426 | 38 | 161 | 0.0 | 0.0 | 0.00 | 0.00 | 0.00 | 81 | 1017.1 |
| 20260504024923 | 38 | 161 | 0.0 | 0.0 | 0.00 | 0.00 | 0.00 | 81 | 1017.2 |
| 20260504024420 | 38 | 162 | 0.0 | 0.0 | 0.00 | 0.00 | 0.00 | 81 | 1017.3 |
| 20260504023917 | 38 | 161 | 0.0 | 0.0 | 0.00 | 0.00 | 0.00 | 80 | 1017.1 |
| 20260504023413 | 39 | 162 | 0.0 | 0.0 | 0.00 | 0.00 | 0.00 | 80 | 1017.0 |
| 20260504022909 | 38 | 162 | 0.0 | 0.0 | 0.00 | 0.00 | 0.00 | 79 | 1017.0 |
| 20260504022406 | 39 | 162 | 0.0 | 0.0 | 0.00 | 0.00 | 0.00 | 78 | 1016.9 |
| 20260504021902 | 39 | 161 | 0.0 | 0.0 | 0.00 | 0.00 | 0.00 | 78 | 1016.8 |
| 20260504021400 | 39 | 161 | 0.0 | 0.0 | 0.00 | 0.00 | 0.00 | 77 | 1016.8 |
| 20260504020857 | 40 | 156 | 0.0 | 0.0 | 0.00 | 0.00 | 0.00 | 77 | 1016.7 |
| 20260504020353 | 40 | 146 | 0.0 | 0.0 | 0.00 | 0.00 | 0.00 | 76 | 1016.7 |
| 20260504015849 | 40 | 159 | 0.0 | 0.0 | 0.00 | 0.00 | 0.00 | 75 | 1016.6 |
| 20260504015345 | 40 | 159 | 0.0 | 0.0 | 0.00 | 0.00 | 0.00 | 75 | 1016.4 |
| 20260504014842 | 41 | 158 | 0.0 | 0.0 | 0.00 | 0.00 | 0.00 | 75 | 1016.5 |
| 20260504014337 | 41 | 161 | 0.0 | 0.0 | 0.00 | 0.00 | 0.00 | 73 | 1016.3 |
| 20260504013836 | 41 | 161 | 0.0 | 0.0 | 0.00 | 0.00 | 0.00 | 74 | 1016.2 |
| 20260504013333 | 41 | 161 | 0.0 | 0.0 | 0.00 | 0.00 | 0.00 | 72 | 1016.1 |
| 20260504012830 | 41 | 161 | 0.0 | 0.0 | 0.00 | 0.00 | 0.00 | 71 | 1016.2 |
| 20260504012327 | 42 | 161 | 0.0 | 0.0 | 0.00 | 0.00 | 0.00 | 71 | 1016.0 |
| 20260504011825 | 42 | 159 | 0.0 | 0.0 | 0.00 | 0.00 | 0.00 | 67 | 1015.9 |
| 20260504011321 | 43 | 156 | 0.0 | 0.0 | 0.00 | 0.00 | 0.00 | 68 | 1015.9 |
| 20260504010817 | 43 | 164 | 0.0 | 0.0 | 0.00 | 0.00 | 0.00 | 68 | 1015.9 |
| 20260504010313 | 44 | 164 | 0.0 | 0.0 | 0.00 | 0.00 | 0.00 | 67 | 1016.0 |
| 20260504005810 | 45 | 164 | 0.0 | 0.0 | 0.00 | 0.00 | 0.00 | 66 | 1016.0 |
| 20260504005307 | 45 | 168 | 0.0 | 0.0 | 0.00 | 0.00 | 0.00 | 64 | 1015.9 |
| 20260504004804 | 46 | 156 | 0.0 | 0.0 | 0.00 | 0.00 | 0.00 | 64 | 1015.8 |
| 20260504004302 | 47 | 156 | 0.0 | 0.0 | 0.00 | 0.00 | 0.00 | 60 | 1015.9 |
| 20260504003758 | 47 | 150 | 0.0 | 2.0 | 0.00 | 0.00 | 0.00 | 60 | 1015.8 |
| 20260504003255 | 48 | 176 | 0.0 | 2.0 | 0.00 | 0.00 | 0.00 | 60 | 1015.6 |
| 20260504002751 | 48 | 161 | 0.0 | 0.0 | 0.00 | 0.00 | 0.00 | 56 | 1015.4 |
| 20260504002249 | 50 | 161 | 0.0 | 0.0 | 0.00 | 0.00 | 0.00 | 53 | 1016.0 |
| 20260504001746 | 51 | 161 | 0.0 | 0.0 | 0.00 | 0.00 | 0.00 | 51 | 1015.8 |
| 20260504001243 | 52 | 164 | 0.0 | 0.0 | 0.00 | 0.00 | 0.00 | 49 | 1015.5 |
| 20260504000739 | 53 | 158 | 0.0 | 0.0 | 0.00 | 0.00 | 0.00 | 46 | 1015.5 |
| 20260504000236 | 54 | 153 | 0.0 | 0.0 | 0.00 | 0.00 | 0.00 | 44 | 1015.8 |
| 20260503235735 | 56 | 160 | 0.0 | 0.0 | 0.00 | 0.00 | 0.00 | 41 | 1015.5 |
| 20260503235231 | 58 | 179 | 0.0 | 0.0 | 0.00 | 0.00 | 0.00 | 38 | 1015.9 |
| 20260503234730 | 59 | 193 | 0.0 | 2.0 | 0.00 | 0.00 | 0.00 | 33 | 1015.8 |
| 20260503234227 | 60 | 292 | 3.0 | 3.0 | 0.00 | 0.00 | 0.00 | 31 | 1015.6 |
| 20260503233724 | 60 | 190 | 0.0 | 3.0 | 0.00 | 0.00 | 0.00 | 30 | 1015.5 |
| 20260503233219 | 61 | 203 | 1.0 | 5.0 | 0.00 | 0.00 | 0.00 | 31 | 1015.5 |
| 20260503232717 | 62 | 283 | 5.0 | 11.0 | 0.00 | 0.00 | 0.00 | 29 | 1015.5 |
| 20260503232214 | 63 | 181 | 0.0 | 3.0 | 0.00 | 0.00 | 0.00 | 29 | 1015.5 |
| 20260503231713 | 63 | 326 | 3.0 | 3.0 | 0.00 | 0.00 | 0.00 | 29 | 1015.4 |
| 20260503231208 | 63 | 235 | 2.0 | 5.0 | 0.00 | 0.00 | 0.00 | 28 | 1015.3 |
| 20260503230705 | 63 | 319 | 4.0 | 7.0 | 0.00 | 0.00 | 0.00 | 27 | 1015.5 |
| 20260503230202 | 63 | 175 | 3.0 | 5.0 | 0.00 | 0.00 | 0.00 | 29 | 1015.2 |
| 20260503225659 | 63 | 232 | 2.0 | 8.0 | 0.00 | 0.00 | 0.00 | 29 | 1015.1 |
| 20260503225154 | 64 | 292 | 5.0 | 8.0 | 0.00 | 0.00 | 0.00 | 27 | 1015.3 |
| 20260503224651 | 64 | 291 | 5.0 | 8.0 | 0.00 | 0.00 | 0.00 | 27 | 1015.4 |
| 20260503224149 | 64 | 300 | 5.0 | 7.0 | 0.00 | 0.00 | 0.00 | 26 | 1015.3 |
| 20260503223647 | 64 | 257 | 5.0 | 7.0 | 0.00 | 0.00 | 0.00 | 28 | 1015.0 |
| 20260503223143 | 64 | 240 | 1.0 | 10.0 | 0.00 | 0.00 | 0.00 | 26 | 1015.2 |
| 20260503222640 | 64 | 192 | 0.0 | 2.0 | 0.00 | 0.00 | 0.00 | 28 | 1015.3 |
| 20260503222138 | 64 | 242 | 5.0 | 7.0 | 0.00 | 0.00 | 0.00 | 26 | 1015.3 |
| 20260503221636 | 64 | 309 | 3.0 | 7.0 | 0.00 | 0.00 | 0.00 | 26 | 1015.4 |
| 20260503221133 | 64 | 355 | 7.0 | 14.0 | 0.00 | 0.00 | 0.00 | 26 | 1015.3 |
| 20260503220630 | 64 | 341 | 4.0 | 8.0 | 0.00 | 0.00 | 0.00 | 27 | 1015.5 |
| 20260503220126 | 64 | 253 | 5.0 | 10.0 | 0.00 | 0.00 | 0.00 | 26 | 1015.3 |
| 20260503215624 | 64 | 319 | 7.0 | 11.0 | 0.00 | 0.00 | 0.00 | 25 | 1015.5 |
| 20260503215120 | 64 | 291 | 4.0 | 7.0 | 0.00 | 0.00 | 0.00 | 26 | 1015.5 |
| 20260503214619 | 64 | 356 | 16.0 | 19.0 | 0.00 | 0.00 | 0.00 | 24 | 1015.6 |
| 20260503214115 | 64 | 289 | 5.0 | 8.0 | 0.00 | 0.00 | 0.00 | 26 | 1015.6 |
| 20260503213614 | 64 | 269 | 4.0 | 5.0 | 0.00 | 0.00 | 0.00 | 26 | 1015.5 |
| 20260503213110 | 64 | 203 | 7.0 | 11.0 | 0.00 | 0.00 | 0.00 | 25 | 1015.6 |
| 20260503212608 | 64 | 233 | 3.0 | 11.0 | 0.00 | 0.00 | 0.00 | 26 | 1015.5 |
| 20260503212105 | 63 | 295 | 5.0 | 8.0 | 0.00 | 0.00 | 0.00 | 27 | 1015.4 |
| 20260503211602 | 63 | 323 | 3.0 | 10.0 | 0.00 | 0.00 | 0.00 | 26 | 1015.6 |
| 20260503211057 | 64 | 44 | 9.0 | 11.0 | 0.00 | 0.00 | 0.00 | 27 | 1015.2 |
| 20260503210554 | 64 | 288 | 9.0 | 13.0 | 0.00 | 0.00 | 0.00 | 27 | 1015.4 |
| 20260503210050 | 64 | 325 | 5.0 | 11.0 | 0.00 | 0.00 | 0.00 | 27 | 1015.5 |
| 20260503205547 | 63 | 158 | 4.0 | 10.0 | 0.00 | 0.00 | 0.00 | 28 | 1015.6 |
| 20260503205043 | 64 | 312 | 10.0 | 11.0 | 0.00 | 0.00 | 0.00 | 26 | 1015.6 |
| 20260503204540 | 64 | 143 | 3.0 | 11.0 | 0.00 | 0.00 | 0.00 | 29 | 1015.8 |
| 20260503204038 | 64 | 257 | 7.0 | 10.0 | 0.00 | 0.00 | 0.00 | 26 | 1015.6 |
| 20260503203535 | 63 | 211 | 3.0 | 5.0 | 0.00 | 0.00 | 0.00 | 28 | 1015.6 |
| 20260503203032 | 64 | 248 | 3.0 | 10.0 | 0.00 | 0.00 | 0.00 | 29 | 1015.5 |
| 20260503202530 | 64 | 273 | 6.0 | 10.0 | 0.00 | 0.00 | 0.00 | 28 | 1015.4 |
| 20260503202027 | 64 | 270 | 5.0 | 10.0 | 0.00 | 0.00 | 0.00 | 26 | 1015.8 |
| 20260503201525 | 64 | 233 | 4.0 | 5.0 | 0.00 | 0.00 | 0.00 | 30 | 1016.2 |
| 20260503201022 | 63 | 260 | 3.0 | 10.0 | 0.00 | 0.00 | 0.00 | 27 | 1016.1 |
| 20260503200518 | 63 | 333 | 9.0 | 11.0 | 0.00 | 0.00 | 0.00 | 28 | 1016.1 |
| 20260503200015 | 63 | 267 | 5.0 | 11.0 | 0.00 | 0.00 | 0.00 | 30 | 1016.1 |
| 20260503195513 | 63 | 292 | 5.0 | 8.0 | 0.00 | 0.00 | 0.00 | 27 | 1016.1 |
| 20260503195009 | 63 | 323 | 4.0 | 14.0 | 0.00 | 0.00 | 0.00 | 27 | 1016.2 |
| 20260503194507 | 63 | 221 | 2.0 | 10.0 | 0.00 | 0.00 | 0.00 | 30 | 1016.3 |
| 20260503194006 | 63 | 313 | 5.0 | 11.0 | 0.00 | 0.00 | 0.00 | 30 | 1016.5 |
| 20260503193503 | 63 | 28 | 5.0 | 8.0 | 0.00 | 0.00 | 0.00 | 28 | 1016.6 |
| 20260503192958 | 62 | 210 | 4.0 | 14.0 | 0.00 | 0.00 | 0.00 | 27 | 1016.8 |
| 20260503192454 | 62 | 335 | 11.0 | 16.0 | 0.00 | 0.00 | 0.00 | 27 | 1016.7 |
| 20260503191950 | 63 | 288 | 7.0 | 10.0 | 0.00 | 0.00 | 0.00 | 30 | 1016.8 |
| 20260503191448 | 62 | 89 | 0.0 | 5.0 | 0.00 | 0.00 | 0.00 | 37 | 1016.9 |
| 20260503190944 | 62 | 237 | 5.0 | 8.0 | 0.00 | 0.00 | 0.00 | 30 | 1016.9 |
| 20260503190442 | 62 | 299 | 7.0 | 10.0 | 0.00 | 0.00 | 0.00 | 30 | 1016.9 |
| 20260503185938 | 61 | 225 | 5.0 | 7.0 | 0.00 | 0.00 | 0.00 | 30 | 1017.0 |
| 20260503185435 | 62 | 324 | 6.0 | 8.0 | 0.00 | 0.00 | 0.00 | 29 | 1017.2 |
| 20260503184934 | 61 | 256 | 5.0 | 10.0 | 0.00 | 0.00 | 0.00 | 34 | 1016.9 |
| 20260503184431 | 61 | 319 | 6.0 | 8.0 | 0.00 | 0.00 | 0.00 | 30 | 1017.4 |
| 20260503183927 | 61 | 336 | 3.0 | 7.0 | 0.00 | 0.00 | 0.00 | 32 | 1017.3 |
| 20260503183424 | 60 | 240 | 7.0 | 13.0 | 0.00 | 0.00 | 0.00 | 32 | 1017.3 |
| 20260503182921 | 60 | 345 | 8.0 | 14.0 | 0.00 | 0.00 | 0.00 | 30 | 1017.4 |
| 20260503182420 | 60 | 318 | 6.0 | 13.0 | 0.00 | 0.00 | 0.00 | 29 | 1017.2 |
| 20260503181917 | 60 | 284 | 9.0 | 13.0 | 0.00 | 0.00 | 0.00 | 30 | 1017.4 |
| 20260503181414 | 61 | 188 | 9.0 | 11.0 | 0.00 | 0.00 | 0.00 | 31 | 1017.4 |
| 20260503180910 | 60 | 0 | 4.0 | 10.0 | 0.00 | 0.00 | 0.00 | 32 | 1017.5 |
| 20260503180408 | 59 | 301 | 8.0 | 11.0 | 0.00 | 0.00 | 0.00 | 32 | 1017.6 |
| 20260503175904 | 59 | 204 | 8.0 | 14.0 | 0.00 | 0.00 | 0.00 | 31 | 1017.6 |
| 20260503175403 | 59 | 316 | 4.0 | 8.0 | 0.00 | 0.00 | 0.00 | 34 | 1017.8 |
| 20260503174858 | 60 | 243 | 5.0 | 13.0 | 0.00 | 0.00 | 0.00 | 32 | 1017.7 |
| 20260503174356 | 59 | 301 | 5.0 | 16.0 | 0.00 | 0.00 | 0.00 | 32 | 1017.7 |
| 20260503173851 | 59 | 282 | 3.0 | 11.0 | 0.00 | 0.00 | 0.00 | 35 | 1017.6 |
| 20260503173348 | 58 | 260 | 5.0 | 7.0 | 0.00 | 0.00 | 0.00 | 33 | 1017.9 |
| 20260503172844 | 58 | 29 | 6.0 | 10.0 | 0.00 | 0.00 | 0.00 | 33 | 1017.7 |
| 20260503172342 | 58 | 221 | 1.0 | 13.0 | 0.00 | 0.00 | 0.00 | 32 | 1018.1 |
| 20260503171838 | 59 | 345 | 10.0 | 13.0 | 0.00 | 0.00 | 0.00 | 35 | 1017.9 |
| 20260503171335 | 58 | 256 | 7.0 | 13.0 | 0.00 | 0.00 | 0.00 | 35 | 1018.0 |
| 20260503170832 | 59 | 316 | 9.0 | 18.0 | 0.00 | 0.00 | 0.00 | 33 | 1017.9 |
| 20260503170328 | 59 | 163 | 0.0 | 7.0 | 0.00 | 0.00 | 0.00 | 37 | 1018.1 |
| 20260503150721 | 54 | 307 | 6.0 | 13.0 | 0.00 | 0.00 | 0.00 | 36 | 1019.1 |
| 20260503150217 | 54 | 275 | 9.0 | 16.0 | 0.00 | 0.00 | 0.00 | 36 | 1019.1 |
| 20260503140141 | 51 | 335 | 9.0 | 11.0 | 0.00 | 0.00 | 0.00 | 42 | 1019.3 |
| 20260503131111 | 50 | 307 | 6.0 | 11.0 | 0.00 | 0.00 | 0.00 | 47 | 1019.7 |
| 20260503130609 | 49 | 22 | 8.0 | 14.0 | 0.00 | 0.00 | 0.00 | 47 | 1019.4 |
| 20260503130106 | 49 | 318 | 8.0 | 10.0 | 0.00 | 0.00 | 0.00 | 49 | 1019.6 |
| 20260503110458 | 38 | 171 | 0.0 | 2.0 | 0.00 | 0.00 | 0.00 | 76 | 1018.6 |
| 20260503090344 | 42 | 342 | 1.0 | 2.0 | 0.00 | 0.00 | 0.00 | 64 | 1017.4 |